Location: Wharf Road Observatory
(44.7802°N, 65.6070°W)
Time: 22:36:15
(UTC-04:00)

N. Korean satellite - Visible Passes

Search period start: 05 December 2021 00:00
Search period end: 15 December 2021 00:00
Orbit: 446 x 495 km, 97.3° (Epoch: 05 December)

Date Brightness Start Highest point End Pass type
(mag) Time Alt. Az. Time Alt. Az. Time Alt. Az.
05 Dec 8.6 05:05:37 10° NE 05:08:33 27° E 05:11:27 10° SSE visible
05 Dec 7.8 06:39:11 10° NNW 06:41:34 18° WNW 06:43:57 10° WSW visible
05 Dec 8.3 17:14:01 10° SSW 17:17:20 37° W 17:20:37 10° NNW visible
06 Dec 9.8 04:38:22 10° ENE 04:39:49 12° E 04:41:17 10° ESE visible
06 Dec 6.8 06:10:03 10° N 06:13:13 39° WNW 06:16:23 10° SW visible
07 Dec 6.3 05:41:21 10° NNE 05:44:44 84° ESE 05:48:07 10° S visible
07 Dec 9.8 17:51:43 10° SW 17:53:38 14° W 17:55:33 10° WNW visible
08 Dec 8.1 05:13:02 10° NNE 05:16:09 33° E 05:19:14 10° SSE visible
08 Dec 8.1 06:47:03 10° NNW 06:49:04 15° WNW 06:51:04 10° WSW visible
08 Dec 8.7 17:21:48 10° SSW 17:24:55 30° W 17:28:01 10° NNW visible
09 Dec 9.5 04:45:22 10° NE 04:47:25 15° E 04:49:30 10° SE visible
09 Dec 7.1 06:17:41 10° N 06:20:43 31° WNW 06:23:45 10° SW visible
10 Dec 6.2 05:48:51 10° N 05:52:14 76° WNW 05:55:38 10° SSW visible
10 Dec 10.0 18:00:06 10° WSW 18:01:13 11° W 18:02:20 10° WNW visible
11 Dec 7.6 05:23:57 41° ESE 05:23:57 41° ESE 05:26:53 10° S visible
11 Dec 8.6 06:58:04 10° W 06:58:04 10° W 06:53:50 - NNW visible
11 Dec 9.1 17:29:33 10° SSW 17:32:27 24° W 17:35:19 10° NW visible
12 Dec 9.2 04:55:35 18° ESE 04:55:35 18° ESE 04:57:25 10° SE visible
12 Dec 8.0 06:29:42 18° WSW 06:29:42 18° WSW 06:31:00 10° SW visible
13 Dec 7.6 06:01:13 28° SW 06:01:13 28° SW 06:03:01 10° SSW visible
14 Dec 8.1 05:32:41 27° SSE 05:32:41 27° SSE 05:34:26 10° S visible
14 Dec9.307:06:46WSW07:06:46WSW07:00:09NNWvisible
14 Dec 9.5 17:37:19 10° SW 17:39:54 20° W 17:42:28 10° NW visible
